This demonstration page uses our WeatherBlox Daily Observations layout. Learn more.

Left ArrowRight Arrow

Hourly Observations for May 26, 2022

Temp ( °F °C ) Dew Point ( °F °C ) Humidity (%) Winds ( mph kmh ) Pressure ( in mb ) Visibility ( mi km ) Precip ( " mm )
12:15 am 00:15 undefined 69 20.5 65 18.5 88 88 S 13 20 29.87 1012 10 16 0.00 0.00
12:35 am 00:35 undefined 69 20.5 65 18.3 87 87 S 13 20 29.87 1012 10 16 0.00 0.00
12:55 am 00:55 undefined 69 20.5 64 18 86 86 S 14 22 29.86 1011 10 16 0.00 0.00
1:15 am 01:15 undefined 69 20.5 64 17.8 85 85 S 12 19 29.86 1011 10 16 0.00 0.00
1:35 am 01:35 undefined 69 20.5 64 17.6 84 84 S 14 22 29.87 1012 10 16 0.00 0.00
1:55 am 01:55 undefined 69 20.8 64 17.5 82 82 S 15 24 29.87 1012 10 16 0.00 0.00
2:15 am 02:15 undefined 69 20.7 63 17.3 81 81 S 9 15 29.87 1012 10 16 0.00 0.00
2:35 am 02:35 undefined 69 20.5 63 17 80 80 S 12 19 29.87 1012 10 16 0.00 0.00
2:55 am 02:55 undefined 68 20 63 17.1 83 83 S 12 19 29.88 1012 10 16 0.00 0.00
3:15 am 03:15 undefined 67 19.7 63 17.2 86 86 S 10 17 29.88 1012 10 16 0.00 0.00
3:35 am 03:35 Mostly Clear with Light Rain 67 19.6 63 17.4 87 87 S 12 19 29.88 1012 10 16 0.00 0.00
3:55 am 03:55 undefined 67 19.3 64 17.5 89 89 S 12 19 29.88 1012 10 16 0.00 0.00
4:15 am 04:15 undefined 66 19.1 63 17.3 89 89 S 6 9 29.88 1012 10 16 0.00 0.00
4:35 am 04:35 undefined 66 19.1 63 17.3 89 89 S 8 13 29.88 1012 10 16 0.00 0.00
4:55 am 04:55 undefined 67 19.2 64 17.5 90 90 S 10 17 29.87 1011 10 16 0.00 0.00
5:15 am 05:15 undefined 67 19.5 64 17.5 88 88 SSE 13 20 29.88 1012 10 16 0.00 0.00
5:35 am 05:35 undefined 67 19.3 63 17.4 89 89 S 7 11 29.88 1012 10 16 0.00 0.00
5:55 am 05:55 undefined 67 19.5 63 17.2 87 87 S 9 15 29.87 1011 10 16 0.00 0.00
6:15 am 06:15 undefined 67 19.3 63 17.2 88 88 S 9 15 29.87 1011 10 16 0.00 0.00
6:35 am 06:35 undefined 67 19.2 63 17.2 88 88 S 9 15 29.87 1011 10 16 0.00 0.00
6:55 am 06:55 undefined 67 19.2 63 17.2 88 88 S 10 17 29.88 1012 10 16 0.00 0.00
7:15 am 07:15 undefined 67 19.5 63 17.4 88 88 S 3 6 29.88 1012 10 16 0.00 0.00
7:35 am 07:35 undefined 67 19.5 64 17.5 88 88 S 10 17 29.87 1011 10 16 0.00 0.00
7:55 am 07:55 undefined 67 19.7 64 17.6 88 88 S 10 17 29.87 1011 10 16 0.00 0.00
8:15 am 08:15 undefined 68 19.9 64 17.8 88 88 S 3 6 29.88 1012 10 16 0.00 0.00
8:35 am 08:35 undefined 68 20 64 17.9 88 88 S 12 19 29.88 1012 10 16 0.00 0.00
8:55 am 08:55 undefined 68 20 64 18 88 88 S 9 15 29.88 1012 10 16 0.00 0.00
9:15 am 09:15 undefined 68 19.9 65 18.2 90 90 S 12 19 29.87 1011 10 16 0.00 0.00
9:35 am 09:35 undefined 68 20.1 65 18.3 89 89 S 12 19 29.87 1011 10 16 0.00 0.00
9:55 am 09:55 undefined 68 20 65 18.2 89 89 S 12 19 29.88 1012 10 16 0.00 0.00
10:15 am 10:15 Partly Cloudy with Heavy Rain 67 19.5 65 18.5 94 94 Calm 29.88 1012 5 8 0.04 1.02
10:35 am 10:35 Partly Cloudy with Rain 66 19.1 65 18.3 95 95 S 10 17 29.88 1012 5 8 0.09 2.29
10:55 am 10:55 Partly Cloudy with Rain 66 18.8 64 18 95 95 S 7 11 29.88 1012 7 11 0.12 3.05
11:15 am 11:15 Partly Cloudy with Light Rain 66 18.8 65 18.1 96 96 S 13 20 29.87 1012 10 16 0.01 0.25
11:35 am 11:35 Partly Cloudy with Light Rain 65 18.6 64 17.5 93 93 SSE 9 15 29.87 1012 10 16 0.01 0.25
11:55 am 11:55 Partly Cloudy with Light Rain 64 18 62 16.9 93 93 SSE 7 11 29.87 1012 10 16 0.01 0.25
12:15 pm 12:15 Partly Cloudy with Light Rain 64 17.7 62 16.8 95 95 S 6 9 29.88 1012 10 16 0.01 0.25
12:35 pm 12:35 Partly Cloudy with Rain 64 17.8 63 17 95 95 Calm 29.87 1012 7 11 0.03 0.76
12:55 pm 12:55 Partly Cloudy with Light Rain 64 18 63 17.3 96 96 SSW 8 13 29.89 1012 10 16 0.04 1.02
1:15 pm 13:15 Partly Cloudy with Rain 63 17.4 62 16.5 94 94 SSW 9 15 29.92 1013 5 8 0.03 0.76
1:35 pm 13:35 Partly Cloudy with Rain 63 17.1 62 16.4 96 96 Calm 29.88 1012 5 8 0.06 1.52
1:55 pm 13:55 Partly Cloudy with Drizzle 64 18 61 16.2 89 89 Calm 29.86 1011 10 16 0.06 1.52
2:15 pm 14:15 undefined 64 18 62 16.6 92 92 Calm 29.85 1011 10 16 0.00 0.00
2:35 pm 14:35 undefined 65 18.2 62 16.6 90 90 Calm 29.85 1011 10 16 0.00 0.00
2:55 pm 14:55 undefined 65 18.5 61 16 85 85 Calm 29.83 1010 10 16 0.00 0.00
3:15 pm 15:15 undefined 66 19.1 63 17.1 88 88 ESE 9 15 29.84 1010 10 16 0.00 0.00
3:35 pm 15:35 undefined 67 19.6 63 17.1 86 86 ESE 10 17 29.84 1010 10 16 0.00 0.00
3:55 pm 15:55 undefined 67 19.6 62 16.7 83 83 SE 9 15 29.83 1010 10 16 0.00 0.00
4:15 pm 16:15 undefined 68 20.2 63 17.2 83 83 ESE 9 15 29.83 1010 10 16 0.00 0.00
4:35 pm 16:35 undefined 69 20.8 63 17.4 81 81 Calm 29.81 1010 10 16 0.00 0.00
4:55 pm 16:55 undefined 69 20.8 63 17.3 80 80 ESE 5 7 29.80 1009 10 16 0.00 0.00
5:15 pm 17:15 undefined 69 20.7 64 17.5 82 82 SE 9 15 29.79 1009 10 16 0.00 0.00
5:35 pm 17:35 undefined 71 21.7 64 17.6 78 78 ESE 12 19 29.76 1008 10 16 0.00 0.00
5:55 pm 17:55 undefined 72 22.3 65 18.2 78 78 SE 10 17 29.75 1007 10 16 0.00 0.00
6:15 pm 18:15 undefined 72 22 64 17.8 77 77 ESE 13 20 29.74 1007 10 16 0.00 0.00
6:35 pm 18:35 undefined 72 22 64 17.7 77 77 SE 15 24 29.73 1007 10 16 0.00 0.00
6:55 pm 18:55 undefined 71 21.8 64 17.7 78 78 ESE 15 24 29.72 1006 10 16 0.00 0.00
7:15 pm 19:15 undefined 71 21.6 64 17.7 79 79 ESE 12 19 29.72 1006 10 16 0.00 0.00
7:35 pm 19:35 undefined 69 20.7 63 17.3 81 81 ESE 15 24 29.72 1007 10 16 0.00 0.00
7:55 pm 19:55 undefined 69 20.5 64 17.6 84 84 SE 12 19 29.71 1006 10 16 0.00 0.00
8:15 pm 20:15 undefined 68 20.1 64 17.6 86 86 SE 10 17 29.73 1007 10 16 0.00 0.00
8:35 pm 20:35 undefined 68 20 64 17.5 86 86 SE 10 17 29.73 1007 10 16 0.00 0.00
8:55 pm 20:55 Partly Cloudy with Nearby Thunderstorms 67 19.7 64 17.5 87 87 Calm 29.74 1007 10 16 0.00 0.00
9:15 pm 21:15 undefined 67 19.5 64 17.5 88 88 Calm 29.74 1007 10 16 0.00 0.00
9:35 pm 21:35 undefined 67 19.4 64 17.5 89 89 W 12 19 29.74 1007 10 16 0.00 0.00
9:55 pm 21:55 Mostly Clear with Light Rain 63 17 59 14.8 87 87 WSW 8 13 29.76 1008 7 11 0.03 0.76
10:15 pm 22:15 Mostly Clear with Rain 62 16.5 60 15.5 94 94 Calm 29.78 1008 7 11 0.02 0.51
10:35 pm 22:35 Mostly Clear with Rain 61 16.2 60 15.7 97 97 Calm 29.78 1008 5 8 0.06 1.52
10:55 pm 22:55 Mostly Clear with Light Rain 61 16.2 60 15.8 97 97 Calm 29.78 1008 10 16 0.07 1.78
11:15 pm 23:15 undefined 61 16.1 60 15.7 97 97 Calm 29.78 1008 10 16 0.00 0.00
11:35 pm 23:35 undefined 61 16 60 15.6 97 97 Calm 29.78 1008 10 16 0.00 0.00
11:55 pm 23:55 undefined 61 15.9 60 15.5 97 97 Calm 29.78 1008 10 16 0.00 0.00

Powered by AerisWeather